Regional Weather Roundup
Issued by NWS Jackson, KY

Home | Current Version | Previous Version | Graphics & Text | Print | Product List | Glossary Off
Versions: 1 2 3 4 5 6 7 8 9 10 11 12 13 14 15 16 17 18 19 20 21 22 23 24 25 26 27 28 29 30 31 32 33 34 35 36 37 38 39 40 41 42 43 44 45 46 47 48 49 50

000
ASUS43 KJKL 041710
RWRJKL

EAST KENTUCKY HOURLY WEATHER ROUNDUP
NATIONAL WEATHER SERVICE JACKSON KY
100 PM EDT SAT JUL 04 2015

NOTE: "FAIR" INDICATES FEW OR NO CLOUDS BELOW 12,000 FEET WITH
NO SIGNIFICANT WEATHER AND/OR OBSTRUCTIONS TO VISIBILITY.

* THESE REPORTS ARE NOT UNDER NWS QUALITY CONTROL AND MAY NOT
  REPORT WEATHER SUCH AS PRECIPITATION AND FOG.

KYZ079-080-083-085-087-088-110-112-115-119-120-041800
...EASTERN KENTUCKY...

CITY           SKY/WX    TMP DP  RH WIND       PRES   REMARKS
JACKSON        CLOUDY    76  67  73 NW7       30.03S
LONDON         CLOUDY    76  65  68 W9        30.04R
SOMERSET*      LGT RAIN  72  68  88 CALM      30.04S
MONTICELLO*    CLOUDY    78  71  79 SW7       30.05F
MIDDLESBORO*   CLOUDY    77  67  72 CALM      30.03F
HARLAN APT*      N/A     72  66  83 SW5       30.05S
HAZARD APT*    PTSUNNY   75  68  78 W3        30.03S
BLACK MTN*       N/A     63  63 100 S3          N/A
PIKEVILLE APT* LGT RAIN  72  66  83 N10       30.04R
BIG SANDY*     RAIN      70  68  95 CALM      30.04R
MOREHEAD APT*  PTSUNNY   75  64  69 CALM      30.05R
$$

KYZ035-036-041-042-044-050-067-078-099-041800
...CENTRAL KENTUCKY...

CITY           SKY/WX    TMP DP  RH WIND       PRES   REMARKS
MT STERLING*   CLOUDY    73  66  78 CALM      30.05R
FLEMING/MASON* CLOUDY    75  64  69 CALM      30.04S
DANVILLE*      PTSUNNY   77  68  73 SW5       30.04S
RICHMOND*      PTSUNNY   75  66  73 NW3       30.03S
LEXINGTON      CLOUDY    76  67  73 NW7       30.03S
FRANKFORT      CLOUDY    76  66  71 CALM      30.02R
$$

KYZ091>093-OHZ055-061-077-WVZ005-015-034-035-042-041800
...SOUTHERN OHIO/WEST VIRGINIA...

CITY           SKY/WX    TMP DP  RH WIND       PRES   REMARKS
COVINGTON      MOSUNNY   78  63  59 VRB5      30.02F
COLUMBUS       MOSUNNY   75  57  53 VRB6      30.00R
DAYTON         MOSUNNY   76  58  53 VRB6      30.04S
WILMINGTON     SUNNY     75  50  41 NW5       30.02S
HUNTINGTON     PTSUNNY   75  64  68 VRB5      30.00S
CHARLESTON     PTSUNNY   77  62  59 CALM      30.00R
PINEVILLE*     CLOUDY    74  68  80 MISG      30.09R
BECKLEY        LGT RAIN  67  64  90 W3        30.07R FOG
BLUEFIELD      PTSUNNY   75  62  64 NW10      30.08S
$$

VAZ002-007-008-TNZ017-027-036-066-071-041800
...SOUTHWEST VIRGINIA/EAST TENNESSEE...

CITY           SKY/WX    TMP DP  RH WIND       PRES   REMARKS
WISE*          CLOUDY    72  68  88 SW8       30.10S
JONESVILLE*      N/A    N/A N/A N/A MISG        N/A
ABINGDON*      CLOUDY    76  69  78 W9        30.07S
BRISTOL        CLOUDY    74  68  81 SW10      30.05F
KNOXVILLE      LGT RAIN  72  69  90 SW9       30.05S FOG
OAK RIDGE      CLOUDY    75  68  78 SW8       30.06S
CROSSVILLE     CLOUDY    73  67  81 W8        30.08F
NASHVILLE      CLOUDY    79  72  79 S8        30.01F
$$

...KEY TO REMARKS...
VSB - VISIBILITY IN MILES
WCI - WIND CHILL INDEX
HX  - HEAT INDEX

$$



USA.gov is the U.S. government's official web portal to all federal, state and local government web resources and services.